GW6020 Weather Reports


time (UTC)temp
C
wind
direction
speed
KPH
gust
KPH
rain 1hr
cm
rain 24hr
cm
rain mn
cm
humidity
%
barometer
mb
20260506143507 18 229 4.8 11.3 0.00 0.00 0.00 74 1009.9
20260506143022 18 276 6.4 16.1 0.00 0.00 0.00 74 1009.9
20260506142508 18 243 3.2 16.1 0.00 0.00 0.00 74 1010.0
20260506142007 18 248 4.8 12.9 0.00 0.00 0.00 74 1010.1
20260506141522 17 210 0.0 14.5 0.00 0.00 0.00 75 1010.0
20260506141006 17 252 3.2 14.5 0.00 0.00 0.00 76 1010.0
20260506140509 17 238 1.6 11.3 0.00 0.00 0.00 77 1010.0
20260506140009 17 250 3.2 12.9 0.00 0.00 0.00 76 1009.9
20260506135502 17 214 3.2 12.9 0.00 0.00 0.00 76 1009.9
20260506135006 17 197 3.2 11.3 0.00 0.00 0.00 78 1010.0
20260506134510 17 125 4.8 12.9 0.00 0.00 0.00 77 1010.0
20260506134006 17 117 3.2 16.1 0.00 0.00 0.00 77 1010.1
20260506133506 17 204 3.2 16.1 0.00 0.00 0.00 78 1010.0
20260506133038 17 264 3.2 16.1 0.00 0.00 0.00 79 1010.0
20260506132508 16 158 3.2 16.1 0.00 0.00 0.00 79 1010.0
20260506132008 16 264 3.2 12.9 0.00 0.00 0.00 79 1009.9
20260506131530 16 174 3.2 12.9 0.00 0.00 0.00 80 1009.9
20260506131008 16 132 1.6 9.7 0.00 0.00 0.00 80 1009.8
20260506130508 16 176 4.8 9.7 0.00 0.00 0.00 80 1009.9
20260506130024 16 242 1.6 9.7 0.00 0.00 0.00 80 1009.9
20260506125506 16 193 1.6 11.3 0.00 0.00 0.00 80 1009.8
20260506125007 16 238 4.8 12.9 0.00 0.00 0.00 80 1009.9
20260506124509 16 84 0.0 12.9 0.00 0.00 0.00 81 1009.8
20260506124006 16 176 3.2 12.9 0.00 0.00 0.00 81 1009.9
20260506123503 15 245 3.2 11.3 0.00 0.00 0.00 81 1009.9
20260506123014 15 77 3.2 14.5 0.00 0.00 0.00 81 1010.1
20260506122507 15 269 8.0 16.1 0.00 0.00 0.00 82 1010.1
20260506122007 15 147 9.7 16.1 0.00 0.00 0.00 82 1010.2
20260506121520 15 104 3.2 14.5 0.00 0.00 0.00 82 1010.3
20260506121007 15 273 4.8 14.5 0.00 0.00 0.00 82 1010.4
20260506120507 15 250 3.2 14.5 0.00 0.00 0.00 83 1010.3
20260506120035 15 285 4.8 14.5 0.00 0.00 0.00 84 1010.2
20260506115508 15 278 1.6 9.7 0.00 0.00 0.00 84 1010.1
20260506115009 15 200 1.6 9.7 0.00 0.00 0.00 85 1010.1
20260506114524 14 131 3.2 9.7 0.00 0.00 0.00 85 1010.1
20260506114007 14 164 3.2 9.7 0.00 0.00 0.00 86 1010.1
20260506113503 14 274 1.6 12.9 0.00 0.00 0.00 86 1010.1
20260506113012 14 213 6.4 17.7 0.00 0.00 0.00 86 1010.1
20260506112506 14 233 4.8 17.7 0.00 0.00 0.00 86 1010.1
20260506112008 13 94 3.2 14.5 0.00 0.00 0.00 86 1010.1
20260506111516 13 224 3.2 14.5 0.00 0.00 0.00 87 1010.3
20260506111007 13 249 6.4 14.5 0.00 0.00 0.00 87 1010.2
20260506110513 13 186 3.2 11.3 0.00 0.00 0.00 88 1010.2
20260506110022 13 226 1.6 9.7 0.00 0.00 0.00 88 1010.2
20260506105507 13 246 3.2 9.7 0.00 0.00 0.00 88 1010.3
20260506105008 13 149 3.2 8.0 0.00 0.00 0.00 88 1010.3
20260506104526 13 115 0.0 14.5 0.00 0.00 0.00 88 1010.3
20260506104008 13 237 4.8 14.5 0.00 0.00 0.00 88 1010.3
20260506103511 13 281 3.2 11.3 0.00 0.00 0.00 88 1010.1
20260506103031 13 228 3.2 9.7 0.00 0.00 0.00 88 1010.0
20260506102504 13 219 3.2 12.9 0.00 0.00 0.00 89 1010.1
20260506102004 13 210 6.4 12.9 0.00 0.00 0.00 89 1010.1
20260506101517 12 213 3.2 9.7 0.00 0.00 0.00 89 1010.2
20260506101010 12 359 1.6 11.3 0.00 0.00 0.00 88 1010.1
20260506100507 13 188 4.8 17.7 0.00 0.00 0.00 89 1010.1
20260506100028 12 219 3.2 19.3 0.00 0.00 0.00 88 1010.1
20260506095508 13 47 3.2 19.3 0.00 0.00 0.00 88 1010.0
20260506095009 12 134 3.2 12.9 0.00 0.00 0.00 88 1009.9
20260506094525 13 149 4.8 17.7 0.00 0.00 0.00 88 1009.9
20260506094007 13 77 3.2 17.7 0.00 0.00 0.00 88 1010.1
20260506093507 13 276 1.6 12.9 0.00 0.00 0.00 88 1010.1
20260506093026 13 179 4.8 16.1 0.00 0.00 0.00 88 1010.0
20260506092510 13 126 3.2 16.1 0.00 0.00 0.00 88 1009.9
20260506092010 13 359 4.8 16.1 0.00 0.00 0.00 88 1009.9
20260506091528 13 18 4.8 16.1 0.00 0.00 0.00 87 1010.0
20260506091004 13 114 6.4 17.7 0.00 0.00 0.00 87 1010.1
20260506090506 13 298 4.8 17.7 0.00 0.00 0.00 87 1010.1
20260506090017 13 163 3.2 14.5 0.00 0.00 0.00 87 1010.1
20260506085507 13 226 4.8 14.5 0.00 0.00 0.00 86 1010.1
20260506085007 13 259 6.4 14.5 0.00 0.00 0.00 86 1010.2
20260506084533 13 188 1.6 12.9 0.00 0.00 0.00 86 1010.2
20260506084008 13 113 3.2 14.5 0.00 0.00 0.00 86 1010.3
20260506083510 13 224 6.4 14.5 0.00 0.00 0.00 85 1010.3
20260506083028 13 185 3.2 12.9 0.00 0.00 0.00 85 1010.3
20260506082509 13 212 4.8 19.3 0.00 0.00 0.00 85 1010.3
20260506082007 13 276 9.7 19.3 0.00 0.00 0.00 85 1010.4
20260506081528 13 279 6.4 24.1 0.00 0.00 0.00 84 1010.4
20260506081015 13 140 6.4 24.1 0.00 0.00 0.00 84 1010.4
20260506080509 13 234 4.8 20.9 0.00 0.00 0.00 84 1010.3
20260506073506 13 105 1.6 14.5 0.00 0.00 0.00 83 1010.4
20260506073023 13 273 3.2 12.9 0.00 0.00 0.00 83 1010.4
20260506072511 13 196 4.8 11.3 0.00 0.00 0.00 83 1010.5
20260506072010 13 99 3.2 11.3 0.00 0.00 0.00 83 1010.5
20260506071526 13 193 4.8 12.9 0.00 0.00 0.00 82 1010.4
20260506071010 13 223 3.2 12.9 0.00 0.00 0.00 82 1010.5
20260506070504 13 189 4.8 12.9 0.00 0.00 0.00 82 1010.5
20260506062505 15 228 3.2 14.5 0.00 0.00 0.00 79 1010.4
20260506062005 15 213 3.2 14.5 0.00 0.00 0.00 79 1010.4
20260506061505 15 171 3.2 11.3 0.00 0.00 0.00 79 1010.5
20260506061004 15 207 4.8 12.9 0.00 0.00 0.00 79 1010.3
20260506060504 14 192 3.2 12.9 0.00 0.00 0.00 79 1010.3
20260506051004 15 183 1.6 11.3 0.00 0.00 0.00 74 1010.8
20260506050504 15 246 3.2 14.5 0.00 0.00 0.00 73 1010.7
20260506045005 16 251 4.8 11.3 0.00 0.00 0.00 72 1010.9
20260506044513 16 219 3.2 12.9 0.00 0.00 0.00 72 1010.9
20260506044005 16 306 6.4 12.9 0.00 0.00 0.00 71 1011.0
20260506043509 16 228 3.2 12.9 0.00 0.00 0.00 71 1010.9
20260506043020 16 231 3.2 12.9 0.00 0.00 0.00 71 1010.9
20260506042508 16 271 3.2 12.9 0.00 0.00 0.00 70 1010.9
20260506042010 16 217 3.2 12.9 0.00 0.00 0.00 70 1010.9
20260506041520 16 115 3.2 14.5 0.00 0.00 0.00 70 1010.9
20260506041003 16 215 4.8 14.5 0.00 0.00 0.00 70 1010.8
20260506040503 16 264 4.8 14.5 0.00 0.00 0.00 70 1010.8
20260506040016 16 208 1.6 14.5 0.00 0.00 0.00 70 1010.9
20260506035504 16 217 1.6 11.3 0.00 0.00 0.00 70 1011.0
20260506035004 16 116 1.6 11.3 0.00 0.00 0.00 70 1010.9
20260506034512 16 194 4.8 9.7 0.00 0.00 0.00 70 1010.9
20260506034005 16 233 1.6 9.7 0.00 0.00 0.00 70 1010.9
20260506033506 16 205 1.6 9.7 0.00 0.00 0.00 70 1010.9
20260506033018 16 173 1.6 9.7 0.00 0.00 0.00 69 1010.8
20260506032511 16 167 4.8 11.3 0.00 0.00 0.00 69 1010.8
20260506032005 16 206 4.8 11.3 0.00 0.00 0.00 69 1010.8
20260506031522 16 120 1.6 12.9 0.00 0.00 0.00 68 1010.8
20260506031008 16 226 6.4 12.9 0.00 0.00 0.00 68 1010.7
20260506030513 16 262 3.2 12.9 0.00 0.00 0.00 68 1010.7
20260506030024 17 182 4.8 12.9 0.00 0.00 0.00 68 1010.7
20260506025503 16 191 1.6 12.9 0.00 0.00 0.00 68 1010.7
20260506025004 17 81 4.8 22.5 0.00 0.00 0.00 67 1010.7
20260506024507 17 204 4.8 22.5 0.00 0.00 0.00 67 1010.6
20260506024003 17 138 1.6 14.5 0.00 0.00 0.00 67 1010.6
20260506023502 17 248 4.8 11.3 0.00 0.00 0.00 67 1010.7
20260506023023 17 127 4.8 9.7 0.00 0.00 0.00 67 1010.6
20260506022508 17 180 1.6 8.0 0.00 0.00 0.00 66 1010.6
20260506022012 17 195 3.2 17.7 0.00 0.00 0.00 66 1010.6
20260506021530 17 238 3.2 17.7 0.00 0.00 0.00 66 1010.7
20260506021008 17 115 4.8 17.7 0.00 0.00 0.00 66 1010.6
20260506020507 17 181 4.8 16.1 0.00 0.00 0.00 65 1010.5
20260506020024 17 209 3.2 12.9 0.00 0.00 0.00 65 1010.7
20260506015510 17 93 3.2 17.7 0.00 0.00 0.00 64 1010.5
20260506015014 17 246 6.4 16.1 0.00 0.00 0.00 64 1010.4
20260506014507 17 207 3.2 14.5 0.00 0.00 0.00 64 1010.3
20260506014003 17 183 3.2 12.9 0.00 0.00 0.00 63 1010.3
20260506013505 17 297 3.2 12.9 0.00 0.00 0.00 63 1010.4
20260506013010 17 123 4.8 11.3 0.00 0.00 0.00 63 1010.3
20260506012503 18 77 3.2 11.3 0.00 0.00 0.00 63 1010.2
20260506012007 18 194 4.8 12.9 0.00 0.00 0.00 62 1010.0
20260506011516 18 268 6.4 12.9 0.00 0.00 0.00 62 1009.9
20260506011012 18 205 3.2 11.3 0.00 0.00 0.00 62 1009.9
20260506010513 18 225 1.6 11.3 0.00 0.00 0.00 62 1009.8
20260506010038 18 203 4.8 17.7 0.00 0.00 0.00 62 1009.8
20260506005509 18 238 6.4 17.7 0.00 0.00 0.00 62 1009.9
20260506005011 18 272 3.2 11.3 0.00 0.00 0.00 61 1009.9
20260506004526 18 80 3.2 11.3 0.00 0.00 0.00 61 1009.8
20260506004008 18 217 4.8 17.7 0.00 0.00 0.00 60 1009.8
20260506003504 18 201 3.2 17.7 0.00 0.00 0.00 60 1009.7
20260506003011 18 75 3.2 14.5 0.00 0.00 0.00 60 1009.6
20260506002506 18 237 3.2 14.5 0.00 0.00 0.00 60 1009.4
20260506002004 18 194 3.2 12.9 0.00 0.00 0.00 60 1009.3
20260506001515 18 181 4.8 16.1 0.00 0.00 0.00 60 1009.4
20260506001003 19 219 4.8 16.1 0.00 0.00 0.00 60 1009.3
20260506000507 19 141 3.2 16.1 0.00 0.00 0.00 60 1009.2
20260506000019 19 242 3.2 19.3 0.00 0.00 0.00 59 1009.2
20260505235509 19 158 6.4 19.3 0.00 0.00 0.00 59 1009.1
20260505235007 19 229 8.0 19.3 0.00 0.00 0.00 59 1009.0
20260505234534 19 221 4.8 16.1 0.00 0.00 0.00 59 1008.8
20260505234007 19 162 4.8 19.3 0.00 0.00 0.00 59 1008.8
20260505233509 19 97 4.8 19.3 0.00 0.00 0.00 58 1008.8
20260505233034 19 285 6.4 22.5 0.00 0.00 0.00 59 1008.8
20260505232505 19 304 6.4 19.3 0.00 0.00 0.00 59 1009.0
20260505232007 20 274 4.8 16.1 0.00 0.00 0.00 58 1008.9
20260505231512 20 211 6.4 17.7 0.00 0.00 0.00 58 1008.7
20260505231003 20 242 3.2 17.7 0.00 0.00 0.00 58 1008.7
20260505230504 20 217 4.8 17.7 0.00 0.00 0.00 57 1008.7
20260505230017 20 211 4.8 12.9 0.00 0.00 0.00 57 1008.7
20260505225505 20 253 4.8 12.9 0.00 0.00 0.00 56 1008.6
20260505225008 21 285 1.6 12.9 0.00 0.00 0.00 56 1008.5
20260505224522 21 146 4.8 17.7 0.00 0.00 0.00 55 1008.3
20260505224010 21 198 6.4 19.3 0.00 0.00 0.00 55 1008.3
20260505223516 21 122 4.8 19.3 0.00 0.00 0.00 55 1008.1
20260505223025 21 217 6.4 19.3 0.00 0.00 0.00 54 1008.3
20260505222513 21 137 3.2 17.7 0.00 0.00 0.00 54 1008.2
20260505222009 22 79 4.8 12.9 0.00 0.00 0.00 54 1008.4
20260505221528 22 235 3.2 17.7 0.00 0.00 0.00 54 1008.4
20260505221009 22 199 6.4 17.7 0.00 0.00 0.00 53 1008.5
20260505220503 22 139 4.8 16.1 0.00 0.00 0.00 54 1008.5
20260505220016 22 268 4.8 22.5 0.00 0.00 0.00 53 1008.5
20260505215504 22 225 4.8 22.5 0.00 0.00 0.00 54 1008.3
20260505215005 22 263 8.0 17.7 0.00 0.00 0.00 53 1008.3
20260505214541 22 175 1.6 19.3 0.00 0.00 0.00 54 1008.1
20260505214008 22 138 4.8 19.3 0.00 0.00 0.00 54 1008.4
20260505213507 22 261 6.4 14.5 0.00 0.00 0.00 53 1008.2
20260505213023 22 147 6.4 22.5 0.00 0.00 0.00 53 1008.1
20260505212511 22 239 8.0 22.5 0.00 0.00 0.00 52 1008.2
20260505212012 23 260 4.8 20.9 0.00 0.00 0.00 52 1008.2
20260505211526 23 74 4.8 20.9 0.00 0.00 0.00 52 1008.0
20260505211008 23 221 4.8 12.9 0.00 0.00 0.00 54 1008.1
20260505210510 23 226 1.6 12.9 0.00 0.00 0.00 52 1007.9
20260505210012 23 215 4.8 17.7 0.00 0.00 0.00 52 1007.9
20260505205504 23 205 6.4 17.7 0.00 0.00 0.00 52 1007.9
20260505205010 23 131 6.4 17.7 0.00 0.00 0.00 51 1008.1
20260505204520 23 160 6.4 16.1 0.00 0.00 0.00 52 1008.2
20260505204010 23 246 4.8 24.1 0.00 0.00 0.00 52 1008.2
20260505203505 23 176 6.4 24.1 0.00 0.00 0.00 50 1008.0
20260505203033 24 179 4.8 17.7 0.00 0.00 0.00 52 1008.2
20260505202508 23 193 3.2 22.5 0.00 0.00 0.00 52 1008.3
20260505202011 23 181 6.4 22.5 0.00 0.00 0.00 51 1008.3
20260505201529 23 240 8.0 22.5 0.00 0.00 0.00 50 1008.2
20260505201010 24 250 4.8 22.5 0.00 0.00 0.00 50 1008.4
20260505200511 24 236 8.0 20.9 0.00 0.00 0.00 50 1008.3
20260505200029 24 229 4.8 19.3 0.00 0.00 0.00 51 1008.3
20260505195513 24 204 4.8 16.1 0.00 0.00 0.00 50 1008.4
20260505195004 24 91 4.8 20.9 0.00 0.00 0.00 52 1008.5
20260505194515 24 289 4.8 20.9 0.00 0.00 0.00 49 1008.5
20260505194005 25 231 6.4 17.7 0.00 0.00 0.00 48 1008.7
20260505193505 25 206 8.0 17.7 0.00 0.00 0.00 49 1008.5
20260505193019 25 252 3.2 17.7 0.00 0.00 0.00 50 1008.6
20260505192508 25 40 6.4 20.9 0.00 0.00 0.00 49 1008.3
20260505192008 24 86 3.2 27.4 0.00 0.00 0.00 49 1008.5
20260505191524 25 232 12.9 29.0 0.00 0.00 0.00 47 1008.6
20260505191011 25 269 11.3 29.0 0.00 0.00 0.00 47 1008.7
20260505190510 25 221 8.0 27.4 0.00 0.00 0.00 48 1008.8
20260505190027 25 219 6.4 27.4 0.00 0.00 0.00 47 1008.7
20260505185510 25 205 4.8 27.4 0.00 0.00 0.00 50 1009.0
20260505185015 25 203 8.0 19.3 0.00 0.00 0.00 47 1009.1
20260505184530 25 242 6.4 16.1 0.00 0.00 0.00 47 1009.0
20260505184003 25 85 4.8 17.7 0.00 0.00 0.00 49 1009.1
20260505183504 25 217 6.4 17.7 0.00 0.00 0.00 47 1009.2
20260505183021 25 248 4.8 14.5 0.00 0.00 0.00 49 1009.2
20260505182514 25 184 6.4 22.5 0.00 0.00 0.00 49 1009.2
20260505182007 25 236 6.4 22.5 0.00 0.00 0.00 49 1009.2
20260505181524 25 215 9.7 22.5 0.00 0.00 0.00 48 1009.3
20260505181007 25 266 4.8 17.7 0.00 0.00 0.00 49 1009.3
20260505180509 25 244 6.4 17.7 0.00 0.00 0.00 50 1009.2
20260505180051 25 179 9.7 19.3 0.00 0.00 0.00 48 1009.3
20260505175509 25 112 9.7 20.9 0.00 0.00 0.00 48 1009.3
20260505175015 25 216 6.4 20.9 0.00 0.00 0.00 48 1009.2
20260505174546 25 104 3.2 14.5 0.00 0.00 0.00 50 1009.2
20260505174010 25 210 6.4 20.9 0.00 0.00 0.00 47 1009.3
20260505173506 25 246 9.7 20.9 0.00 0.00 0.00 46 1009.3
20260505173022 25 189 6.4 16.1 0.00 0.00 0.00 47 1009.2
20260505172506 25 72 8.0 16.1 0.00 0.00 0.00 46 1009.4
20260505172008 25 316 4.8 14.5 0.00 0.00 0.00 48 1009.5
20260505171524 25 179 6.4 14.5 0.00 0.00 0.00 49 1009.5
20260505171007 25 222 3.2 14.5 0.00 0.00 0.00 49 1009.5
20260505170508 24 230 4.8 14.5 0.00 0.00 0.00 47 1009.6
20260505170026 25 266 6.4 12.9 0.00 0.00 0.00 48 1009.6
20260505165509 25 199 3.2 12.9 0.00 0.00 0.00 49 1009.7
20260505165009 24 251 4.8 16.1 0.00 0.00 0.00 49 1009.7
20260505164526 24 224 6.4 17.7 0.00 0.00 0.00 48 1009.9
20260505164013 24 222 6.4 17.7 0.00 0.00 0.00 49 1010.0
20260505163512 25 1 8.0 17.7 0.00 0.00 0.00 47 1010.1
20260505163026 24 115 4.8 12.9 0.00 0.00 0.00 52 1010.2
20260505162509 24 330 6.4 14.5 0.00 0.00 0.00 49 1010.2
20260505162010 24 84 3.2 14.5 0.00 0.00 0.00 51 1010.2
20260505161517 23 184 6.4 16.1 0.00 0.00 0.00 51 1010.3
20260505161007 23 162 3.2 16.1 0.00 0.00 0.00 52 1010.3
20260505160510 23 221 4.8 14.5 0.00 0.00 0.00 52 1010.3
20260505153010 23 194 1.6 14.5 0.00 0.00 0.00 53 1010.5
20260505152505 23 265 4.8 11.3 0.00 0.00 0.00 52 1010.7
20260505152010 23 221 3.2 12.9 0.00 0.00 0.00 52 1010.7
20260505151517 22 167 1.6 12.9 0.00 0.00 0.00 55 1010.9
20260505151009 22 346 4.8 12.9 0.00 0.00 0.00 53 1011.0
20260505150510 22 245 4.8 16.1 0.00 0.00 0.00 54 1011.1